Year,Month,Day,Hour,Minute,Value (Times are PST for temperature in C)
2011,04,05,00,00,5.90
2011,04,05,00,01,6.00
2011,04,05,00,02,6.10
2011,04,05,00,03,6.10
2011,04,05,00,04,6.20
2011,04,05,00,05,6.20
2011,04,05,00,06,6.20
2011,04,05,00,07,6.20
2011,04,05,00,08,6.20
2011,04,05,00,09,6.10
2011,04,05,00,10,6.10
2011,04,05,00,11,6.10
2011,04,05,00,12,6.00
2011,04,05,00,13,5.90
2011,04,05,00,14,5.90
2011,04,05,00,15,5.80
2011,04,05,00,16,5.70
2011,04,05,00,17,5.70
2011,04,05,00,18,5.70
2011,04,05,00,19,5.60
2011,04,05,00,20,5.60
2011,04,05,00,21,5.70
2011,04,05,00,22,5.70
2011,04,05,00,23,5.60
2011,04,05,00,24,5.70
2011,04,05,00,25,5.70
2011,04,05,00,26,5.70
2011,04,05,00,27,5.60
2011,04,05,00,28,5.60
2011,04,05,00,29,5.60
2011,04,05,00,30,5.60
2011,04,05,00,31,5.60
2011,04,05,00,32,5.60
2011,04,05,00,33,5.60
2011,04,05,00,34,5.60
2011,04,05,00,35,5.60
2011,04,05,00,36,5.70
2011,04,05,00,37,5.70
2011,04,05,00,38,5.80
2011,04,05,00,39,5.80
2011,04,05,00,40,5.80
2011,04,05,00,41,5.80
2011,04,05,00,42,5.80
2011,04,05,00,43,5.70
2011,04,05,00,44,5.70
2011,04,05,00,45,5.70
2011,04,05,00,46,5.70
2011,04,05,00,47,5.70
2011,04,05,00,48,5.70
2011,04,05,00,49,5.70
2011,04,05,00,50,5.60
2011,04,05,00,51,5.50
2011,04,05,00,52,5.50
2011,04,05,00,53,5.40
2011,04,05,00,54,5.40
2011,04,05,00,55,5.40
2011,04,05,00,56,5.40
2011,04,05,00,57,5.30
2011,04,05,00,58,5.30
2011,04,05,00,59,5.30
2011,04,05,01,00,5.30
2011,04,05,01,01,5.30
2011,04,05,01,02,5.30
2011,04,05,01,03,5.30
2011,04,05,01,04,5.30
2011,04,05,01,05,5.30
2011,04,05,01,06,5.30
2011,04,05,01,07,5.30
2011,04,05,01,08,5.30
2011,04,05,01,09,5.30
2011,04,05,01,10,5.30
2011,04,05,01,11,5.30
2011,04,05,01,12,5.20
2011,04,05,01,13,5.20
2011,04,05,01,14,5.30
2011,04,05,01,15,5.30
2011,04,05,01,16,5.30
2011,04,05,01,17,5.30
2011,04,05,01,18,5.30
2011,04,05,01,19,5.20
2011,04,05,01,20,5.20
2011,04,05,01,21,5.20
2011,04,05,01,22,5.30
2011,04,05,01,23,5.40
2011,04,05,01,24,5.40
2011,04,05,01,25,5.40
2011,04,05,01,26,5.50
2011,04,05,01,27,5.50
2011,04,05,01,28,5.60
2011,04,05,01,29,5.70
2011,04,05,01,30,5.80
2011,04,05,01,31,6.00
2011,04,05,01,32,6.00
2011,04,05,01,33,6.10
2011,04,05,01,34,6.20
2011,04,05,01,35,6.20
2011,04,05,01,36,6.30
2011,04,05,01,37,6.30
2011,04,05,01,38,6.30
2011,04,05,01,39,6.40
2011,04,05,01,40,6.40
2011,04,05,01,41,6.40
2011,04,05,01,42,6.40
2011,04,05,01,43,6.40
2011,04,05,01,44,6.30
2011,04,05,01,45,6.30
2011,04,05,01,46,6.30
2011,04,05,01,47,6.30
2011,04,05,01,48,6.30
2011,04,05,01,49,6.30
2011,04,05,01,50,6.30
2011,04,05,01,51,6.30
2011,04,05,01,52,6.20
2011,04,05,01,53,6.20
2011,04,05,01,54,6.20
2011,04,05,01,55,6.20
2011,04,05,01,56,6.20
2011,04,05,01,57,6.20
2011,04,05,01,58,6.20
2011,04,05,01,59,6.20
2011,04,05,02,00,6.20
2011,04,05,02,01,6.20
2011,04,05,02,02,6.10
2011,04,05,02,03,6.10
2011,04,05,02,04,6.10
2011,04,05,02,05,6.10
2011,04,05,02,06,6.00
2011,04,05,02,07,6.00
2011,04,05,02,08,6.00
2011,04,05,02,09,6.00
2011,04,05,02,10,6.00
2011,04,05,02,11,6.10
2011,04,05,02,12,6.10
2011,04,05,02,13,6.10
2011,04,05,02,14,6.10
2011,04,05,02,15,6.10
2011,04,05,02,16,6.10
2011,04,05,02,17,6.20
2011,04,05,02,18,6.20
2011,04,05,02,19,6.20
2011,04,05,02,20,6.20
2011,04,05,02,21,6.20
2011,04,05,02,22,6.20
2011,04,05,02,23,6.20
2011,04,05,02,24,6.20
2011,04,05,02,25,6.20
2011,04,05,02,26,6.20
2011,04,05,02,27,6.20
2011,04,05,02,28,6.20
2011,04,05,02,29,6.20
2011,04,05,02,30,6.20
2011,04,05,02,31,6.20
2011,04,05,02,32,6.20
2011,04,05,02,33,6.10
2011,04,05,02,34,6.10
2011,04,05,02,35,6.10
2011,04,05,02,36,6.10
2011,04,05,02,37,6.10
2011,04,05,02,38,6.10
2011,04,05,02,39,6.10
2011,04,05,02,40,6.10
2011,04,05,02,41,6.10
2011,04,05,02,42,6.10
2011,04,05,02,43,6.00
2011,04,05,02,44,6.00
2011,04,05,02,45,5.90
2011,04,05,02,46,5.90
2011,04,05,02,47,5.80
2011,04,05,02,48,5.80
2011,04,05,02,49,5.80
2011,04,05,02,50,5.80
2011,04,05,02,51,5.80
2011,04,05,02,52,5.80
2011,04,05,02,53,5.70
2011,04,05,02,54,5.70
2011,04,05,02,55,5.70
2011,04,05,02,56,5.70
2011,04,05,02,57,5.70
2011,04,05,02,58,5.80
2011,04,05,02,59,5.80
2011,04,05,03,00,5.80
2011,04,05,03,01,5.80
2011,04,05,03,02,5.90
2011,04,05,03,03,6.00
2011,04,05,03,04,6.00
2011,04,05,03,05,6.00
2011,04,05,03,06,6.00
2011,04,05,03,07,6.00
2011,04,05,03,08,6.00
2011,04,05,03,09,6.00
2011,04,05,03,10,6.00
2011,04,05,03,11,5.90
2011,04,05,03,12,5.90
2011,04,05,03,13,6.00
2011,04,05,03,14,6.00
2011,04,05,03,15,6.00
2011,04,05,03,16,6.00
2011,04,05,03,17,5.90
2011,04,05,03,18,5.90
2011,04,05,03,19,5.90
2011,04,05,03,20,5.90
2011,04,05,03,21,5.90
2011,04,05,03,22,5.90
2011,04,05,03,23,5.90
2011,04,05,03,24,5.90
2011,04,05,03,25,5.90
2011,04,05,03,26,5.90
2011,04,05,03,27,6.00
2011,04,05,03,28,6.00
2011,04,05,03,29,6.00
2011,04,05,03,30,6.10
2011,04,05,03,31,6.10
2011,04,05,03,32,6.10
2011,04,05,03,33,6.10
2011,04,05,03,34,6.10
2011,04,05,03,35,6.10
2011,04,05,03,36,6.10
2011,04,05,03,37,6.10
2011,04,05,03,38,6.10
2011,04,05,03,39,6.10
2011,04,05,03,40,6.10
2011,04,05,03,41,6.10
2011,04,05,03,42,6.10
2011,04,05,03,43,6.10
2011,04,05,03,44,6.10
2011,04,05,03,45,6.10
2011,04,05,03,46,6.10
2011,04,05,03,47,6.10
2011,04,05,03,48,6.10
2011,04,05,03,49,6.10
2011,04,05,03,50,6.00
2011,04,05,03,51,6.00
2011,04,05,03,52,6.00
2011,04,05,03,53,6.00
2011,04,05,03,54,6.00
2011,04,05,03,55,6.00
2011,04,05,03,56,6.00
2011,04,05,03,57,6.00
2011,04,05,03,58,6.00
2011,04,05,03,59,6.00
2011,04,05,04,00,5.90
2011,04,05,04,01,5.90
2011,04,05,04,02,5.90
2011,04,05,04,03,5.90
2011,04,05,04,04,5.90
2011,04,05,04,05,5.90
2011,04,05,04,06,5.80
2011,04,05,04,07,5.80
2011,04,05,04,08,5.80
2011,04,05,04,09,5.70
2011,04,05,04,10,5.70
2011,04,05,04,11,5.70
2011,04,05,04,12,5.70
2011,04,05,04,13,5.60
2011,04,05,04,14,5.60
2011,04,05,04,15,5.60
2011,04,05,04,16,5.60
2011,04,05,04,17,5.60
2011,04,05,04,18,5.60
2011,04,05,04,19,5.60
2011,04,05,04,20,5.60
2011,04,05,04,21,5.60
2011,04,05,04,22,5.60
2011,04,05,04,23,5.60
2011,04,05,04,24,5.60
2011,04,05,04,25,5.60
2011,04,05,04,26,5.60
2011,04,05,04,27,5.50
2011,04,05,04,28,5.40
2011,04,05,04,29,5.30
2011,04,05,04,30,5.20
2011,04,05,04,31,5.20
2011,04,05,04,32,5.10
2011,04,05,04,33,5.10
2011,04,05,04,34,5.00
2011,04,05,04,35,4.90
2011,04,05,04,36,4.80
2011,04,05,04,37,4.70
2011,04,05,04,38,4.70
2011,04,05,04,39,4.60
2011,04,05,04,40,4.60
2011,04,05,04,41,4.60
2011,04,05,04,42,4.60
2011,04,05,04,43,4.60
2011,04,05,04,44,4.60
2011,04,05,04,45,4.60
2011,04,05,04,46,4.60
2011,04,05,04,47,4.50
2011,04,05,04,48,4.40
2011,04,05,04,49,4.40
2011,04,05,04,50,4.30
2011,04,05,04,51,4.30
2011,04,05,04,52,4.20
2011,04,05,04,53,4.10
2011,04,05,04,54,4.00
2011,04,05,04,55,4.00
2011,04,05,04,56,3.90
2011,04,05,04,57,3.80
2011,04,05,04,58,3.80
2011,04,05,04,59,3.90
2011,04,05,05,00,3.90
2011,04,05,05,01,3.90
2011,04,05,05,02,4.00
2011,04,05,05,03,4.10
2011,04,05,05,04,4.10
2011,04,05,05,05,4.10
2011,04,05,05,06,4.10
2011,04,05,05,07,4.10
2011,04,05,05,08,4.10
2011,04,05,05,09,4.10
2011,04,05,05,10,4.20
2011,04,05,05,11,4.20
2011,04,05,05,12,4.20
2011,04,05,05,13,4.20
2011,04,05,05,14,4.20
2011,04,05,05,15,4.20
2011,04,05,05,16,4.20
2011,04,05,05,17,4.30
2011,04,05,05,18,4.30
2011,04,05,05,19,4.20
2011,04,05,05,20,4.10
2011,04,05,05,21,4.00
2011,04,05,05,22,3.90
2011,04,05,05,23,3.90
2011,04,05,05,24,3.80
2011,04,05,05,25,3.70
2011,04,05,05,26,3.60
2011,04,05,05,27,3.60
2011,04,05,05,28,3.50
2011,04,05,05,29,3.50
2011,04,05,05,30,3.50
2011,04,05,05,31,3.50
2011,04,05,05,32,3.50
2011,04,05,05,33,3.50
2011,04,05,05,34,3.40
2011,04,05,05,35,3.40
2011,04,05,05,36,3.40
2011,04,05,05,37,3.40
2011,04,05,05,38,3.40
2011,04,05,05,39,3.50
2011,04,05,05,40,3.50
2011,04,05,05,41,3.50
2011,04,05,05,42,3.50
2011,04,05,05,43,3.40
2011,04,05,05,44,3.40
2011,04,05,05,45,3.50
2011,04,05,05,46,3.50
2011,04,05,05,47,3.50
2011,04,05,05,48,3.50
2011,04,05,05,49,3.40
2011,04,05,05,50,3.50
2011,04,05,05,51,3.50
2011,04,05,05,52,3.60
2011,04,05,05,53,3.60
2011,04,05,05,54,3.60
2011,04,05,05,55,3.60
2011,04,05,05,56,3.60
2011,04,05,05,57,3.60
2011,04,05,05,58,3.50
2011,04,05,05,59,3.50
2011,04,05,06,00,3.50
2011,04,05,06,01,3.40
2011,04,05,06,02,3.40
2011,04,05,06,03,3.40
2011,04,05,06,04,3.40
2011,04,05,06,05,3.30
2011,04,05,06,06,3.30
2011,04,05,06,07,3.30
2011,04,05,06,08,3.30
2011,04,05,06,09,3.30
2011,04,05,06,10,3.30
2011,04,05,06,11,3.40
2011,04,05,06,12,3.50
2011,04,05,06,13,3.50
2011,04,05,06,14,3.60
2011,04,05,06,15,3.60
2011,04,05,06,16,3.60
2011,04,05,06,17,3.60
2011,04,05,06,18,3.60
2011,04,05,06,19,3.60
2011,04,05,06,20,3.60
2011,04,05,06,21,3.70
2011,04,05,06,22,3.70
2011,04,05,06,23,3.70
2011,04,05,06,24,3.70
2011,04,05,06,25,3.80
2011,04,05,06,26,3.90
2011,04,05,06,27,3.90
2011,04,05,06,28,4.00
2011,04,05,06,29,4.10
2011,04,05,06,30,4.10
2011,04,05,06,31,4.20
2011,04,05,06,32,4.20
2011,04,05,06,33,4.20
2011,04,05,06,34,4.20
2011,04,05,06,35,4.20
2011,04,05,06,36,4.30
2011,04,05,06,37,4.30
2011,04,05,06,38,4.30
2011,04,05,06,39,4.30
2011,04,05,06,40,4.20
2011,04,05,06,41,4.20
2011,04,05,06,42,4.20
2011,04,05,06,43,4.20
2011,04,05,06,44,4.20
2011,04,05,06,45,4.20
2011,04,05,06,46,4.20
2011,04,05,06,47,4.20
2011,04,05,06,48,4.20
2011,04,05,06,49,4.10
2011,04,05,06,50,4.10
2011,04,05,06,51,4.10
2011,04,05,06,52,4.10
2011,04,05,06,53,4.10
2011,04,05,06,54,4.10
2011,04,05,06,55,4.10
2011,04,05,06,56,4.10
2011,04,05,06,57,4.10
2011,04,05,06,58,4.10
2011,04,05,06,59,4.10
2011,04,05,07,00,4.10
2011,04,05,07,01,4.10
2011,04,05,07,02,4.10
2011,04,05,07,03,4.10
2011,04,05,07,04,4.10
2011,04,05,07,05,4.10
2011,04,05,07,06,4.10
2011,04,05,07,07,4.10
2011,04,05,07,08,4.10
2011,04,05,07,09,4.10
2011,04,05,07,10,4.10
2011,04,05,07,11,4.10
2011,04,05,07,12,4.10
2011,04,05,07,13,4.10
2011,04,05,07,14,4.10
2011,04,05,07,15,4.10
2011,04,05,07,16,4.10
2011,04,05,07,17,4.10
2011,04,05,07,18,4.10
2011,04,05,07,19,4.10
2011,04,05,07,20,4.10
2011,04,05,07,21,4.10
2011,04,05,07,22,4.20
2011,04,05,07,23,4.20
2011,04,05,07,24,4.20
2011,04,05,07,25,4.20
2011,04,05,07,26,4.20
2011,04,05,07,27,4.20
2011,04,05,07,28,4.20
2011,04,05,07,29,4.20
2011,04,05,07,30,4.20
2011,04,05,07,31,4.20
2011,04,05,07,32,4.20
2011,04,05,07,33,4.20
2011,04,05,07,34,4.20
2011,04,05,07,35,4.30
2011,04,05,07,36,4.30
2011,04,05,07,37,4.30
2011,04,05,07,38,4.30
2011,04,05,07,39,4.40
2011,04,05,07,40,4.40
2011,04,05,07,41,4.40
2011,04,05,07,42,4.40
2011,04,05,07,43,4.40
2011,04,05,07,44,4.40
2011,04,05,07,45,4.50
2011,04,05,07,46,4.50
2011,04,05,07,47,4.50
2011,04,05,07,48,4.50
2011,04,05,07,49,4.60
2011,04,05,07,50,4.60
2011,04,05,07,51,4.60
2011,04,05,07,52,4.70
2011,04,05,07,53,4.70
2011,04,05,07,54,4.70
2011,04,05,07,55,4.70
2011,04,05,07,56,4.80
2011,04,05,07,57,4.80
2011,04,05,07,58,4.80
2011,04,05,07,59,4.80
2011,04,05,08,00,4.80
2011,04,05,08,01,4.90
2011,04,05,08,02,4.90
2011,04,05,08,03,4.90
2011,04,05,08,04,4.90
2011,04,05,08,05,4.90
2011,04,05,08,06,4.90
2011,04,05,08,07,4.90
2011,04,05,08,08,4.90
2011,04,05,08,09,4.90
2011,04,05,08,10,4.90
2011,04,05,08,11,4.90
2011,04,05,08,12,4.90
2011,04,05,08,13,5.00
2011,04,05,08,14,5.00
2011,04,05,08,15,4.90
2011,04,05,08,16,4.90
2011,04,05,08,17,4.90
2011,04,05,08,18,5.00
2011,04,05,08,19,5.00
2011,04,05,08,20,5.00
2011,04,05,08,21,5.00
2011,04,05,08,22,5.00
2011,04,05,08,23,4.90
2011,04,05,08,24,4.90
2011,04,05,08,25,4.80
2011,04,05,08,26,4.80
2011,04,05,08,27,4.80
2011,04,05,08,28,4.80
2011,04,05,08,29,4.80
2011,04,05,08,30,4.80
2011,04,05,08,31,4.80
2011,04,05,08,32,4.70
2011,04,05,08,33,4.70
2011,04,05,08,34,4.70
2011,04,05,08,35,4.70
2011,04,05,08,36,4.70
2011,04,05,08,37,4.70
2011,04,05,08,38,4.70
2011,04,05,08,39,4.70
2011,04,05,08,40,4.70
2011,04,05,08,41,4.60
2011,04,05,08,42,4.60
2011,04,05,08,43,4.60
2011,04,05,08,44,4.60
2011,04,05,08,45,4.70
2011,04,05,08,46,4.70
2011,04,05,08,47,4.70
2011,04,05,08,48,4.70
2011,04,05,08,49,4.70
2011,04,05,08,50,4.70
2011,04,05,08,51,4.70
2011,04,05,08,52,4.70
2011,04,05,08,53,4.70
2011,04,05,08,54,4.70
2011,04,05,08,55,4.70
2011,04,05,08,56,4.70
2011,04,05,08,57,4.70
2011,04,05,08,58,4.80
2011,04,05,08,59,4.80
2011,04,05,09,00,4.80
2011,04,05,09,01,4.80
2011,04,05,09,02,4.80
2011,04,05,09,03,4.80
2011,04,05,09,04,4.80
2011,04,05,09,05,4.80
2011,04,05,09,06,4.70
2011,04,05,09,07,4.80
2011,04,05,09,08,4.80
2011,04,05,09,09,4.80
2011,04,05,09,10,4.80
2011,04,05,09,11,4.80
2011,04,05,09,12,4.80
2011,04,05,09,13,4.80
2011,04,05,09,14,4.80
2011,04,05,09,15,4.80
2011,04,05,09,16,4.90
2011,04,05,09,17,4.80
2011,04,05,09,18,4.80
2011,04,05,09,19,4.90
2011,04,05,09,20,4.90
2011,04,05,09,21,4.80
2011,04,05,09,22,4.80
2011,04,05,09,23,4.80
2011,04,05,09,24,4.90
2011,04,05,09,25,4.90
2011,04,05,09,26,4.90
2011,04,05,09,27,4.90
2011,04,05,09,28,4.90
2011,04,05,09,29,4.90
2011,04,05,09,30,4.90
2011,04,05,09,31,4.90
2011,04,05,09,32,4.90
2011,04,05,09,33,4.90
2011,04,05,09,34,4.90
2011,04,05,09,35,4.90
2011,04,05,09,36,4.90
2011,04,05,09,37,4.90
2011,04,05,09,38,4.90
2011,04,05,09,39,4.90
2011,04,05,09,40,4.90
2011,04,05,09,41,5.00
2011,04,05,09,42,5.10
2011,04,05,09,43,5.10
2011,04,05,09,44,5.10
2011,04,05,09,45,5.10
2011,04,05,09,46,5.10
2011,04,05,09,47,5.10
2011,04,05,09,48,5.10
2011,04,05,09,49,5.10
2011,04,05,09,50,5.10
2011,04,05,09,51,5.10
2011,04,05,09,52,5.10
2011,04,05,09,53,5.20
2011,04,05,09,54,5.20
2011,04,05,09,55,5.20
2011,04,05,09,56,5.20
2011,04,05,09,57,5.20
2011,04,05,09,58,5.20
2011,04,05,09,59,5.20
2011,04,05,10,00,5.30
2011,04,05,10,01,5.30
2011,04,05,10,02,5.30
2011,04,05,10,03,5.30
2011,04,05,10,04,5.30
2011,04,05,10,05,5.30
2011,04,05,10,06,5.30
2011,04,05,10,07,5.30
2011,04,05,10,08,5.30
2011,04,05,10,09,5.30
2011,04,05,10,10,5.20
2011,04,05,10,11,5.20
2011,04,05,10,12,5.20
2011,04,05,10,13,5.30
2011,04,05,10,14,5.40
2011,04,05,10,15,5.40
2011,04,05,10,16,5.40
2011,04,05,10,17,5.50
2011,04,05,10,18,5.50
2011,04,05,10,19,5.60
2011,04,05,10,20,5.60
2011,04,05,10,21,5.60
2011,04,05,10,22,5.60
2011,04,05,10,23,5.70
2011,04,05,10,24,5.70
2011,04,05,10,25,5.70
2011,04,05,10,26,5.70
2011,04,05,10,27,5.70
2011,04,05,10,28,5.70
2011,04,05,10,29,5.70
2011,04,05,10,30,5.70
2011,04,05,10,31,5.70
2011,04,05,10,32,5.70
2011,04,05,10,33,5.70
2011,04,05,10,34,5.60
2011,04,05,10,35,5.60
2011,04,05,10,36,5.60
2011,04,05,10,37,5.70
2011,04,05,10,38,5.70
2011,04,05,10,39,5.70
2011,04,05,10,40,5.70
2011,04,05,10,41,5.70
2011,04,05,10,42,5.80
2011,04,05,10,43,5.80
2011,04,05,10,44,5.90
2011,04,05,10,45,5.90
2011,04,05,10,46,5.90
2011,04,05,10,47,6.00
2011,04,05,10,48,6.00
2011,04,05,10,49,6.00
2011,04,05,10,50,6.00
2011,04,05,10,51,6.00
2011,04,05,10,52,6.00
2011,04,05,10,53,6.10
2011,04,05,10,54,6.10
2011,04,05,10,55,6.20
2011,04,05,10,56,6.20
2011,04,05,10,57,6.20
2011,04,05,10,58,6.30
2011,04,05,10,59,6.30
2011,04,05,11,00,6.30
2011,04,05,11,01,6.30
2011,04,05,11,02,6.40
2011,04,05,11,03,6.40
2011,04,05,11,04,6.40
2011,04,05,11,05,6.40
2011,04,05,11,06,6.50
2011,04,05,11,07,6.50
2011,04,05,11,08,6.50
2011,04,05,11,09,6.50
2011,04,05,11,10,6.50
2011,04,05,11,11,6.60
2011,04,05,11,12,6.60
2011,04,05,11,13,6.60
2011,04,05,11,14,6.60
2011,04,05,11,15,6.70
2011,04,05,11,16,6.70
2011,04,05,11,17,6.80
2011,04,05,11,18,6.80
2011,04,05,11,19,6.80
2011,04,05,11,20,6.80
2011,04,05,11,21,6.80
2011,04,05,11,22,6.80
2011,04,05,11,23,6.90
2011,04,05,11,24,6.90
2011,04,05,11,25,7.00
2011,04,05,11,26,7.00
2011,04,05,11,27,7.10
2011,04,05,11,28,7.10
2011,04,05,11,29,7.10
2011,04,05,11,30,7.20
2011,04,05,11,31,7.20
2011,04,05,11,32,7.20
2011,04,05,11,33,7.20
2011,04,05,11,34,7.20
2011,04,05,11,35,7.20
2011,04,05,11,36,7.10
2011,04,05,11,37,7.10
2011,04,05,11,38,7.10
2011,04,05,11,39,7.10
2011,04,05,11,40,7.00
2011,04,05,11,41,7.00
2011,04,05,11,42,7.00
2011,04,05,11,43,7.00
2011,04,05,11,44,7.00
2011,04,05,11,45,7.00
2011,04,05,11,46,7.00
2011,04,05,11,47,7.00
2011,04,05,11,48,7.00
2011,04,05,11,49,7.00
2011,04,05,11,50,7.00
2011,04,05,11,51,7.00
2011,04,05,11,52,7.00
2011,04,05,11,53,7.00
2011,04,05,11,54,7.00
2011,04,05,11,55,7.00
2011,04,05,11,56,7.00
2011,04,05,11,57,7.10
2011,04,05,11,58,7.00
2011,04,05,11,59,7.00
2011,04,05,12,00,7.00
2011,04,05,12,01,7.00
2011,04,05,12,02,7.00
2011,04,05,12,03,6.90
2011,04,05,12,04,7.00
2011,04,05,12,05,6.90
2011,04,05,12,06,6.90
2011,04,05,12,07,6.90
2011,04,05,12,08,6.90
2011,04,05,12,09,6.90
2011,04,05,12,10,6.90
2011,04,05,12,11,6.90
2011,04,05,12,12,6.90
2011,04,05,12,13,7.00
2011,04,05,12,14,7.10
2011,04,05,12,15,7.10
2011,04,05,12,16,7.20
2011,04,05,12,17,7.20
2011,04,05,12,18,7.30
2011,04,05,12,19,7.40
2011,04,05,12,20,7.50
2011,04,05,12,21,7.50
2011,04,05,12,22,7.60
2011,04,05,12,23,7.70
2011,04,05,12,24,7.70
2011,04,05,12,25,7.80
2011,04,05,12,26,7.80
2011,04,05,12,27,7.90
2011,04,05,12,28,7.90
2011,04,05,12,29,7.90
2011,04,05,12,30,8.00
2011,04,05,12,31,8.00
2011,04,05,12,32,8.10
2011,04,05,12,33,8.10
2011,04,05,12,34,8.20
2011,04,05,12,35,8.20
2011,04,05,12,36,8.10
2011,04,05,12,37,8.10
2011,04,05,12,38,8.10
2011,04,05,12,39,8.10
2011,04,05,12,40,8.20
2011,04,05,12,41,8.20
2011,04,05,12,42,8.20
2011,04,05,12,43,8.20
2011,04,05,12,44,8.20
2011,04,05,12,45,8.30
2011,04,05,12,46,8.30
2011,04,05,12,47,8.30
2011,04,05,12,48,8.30
2011,04,05,12,49,8.40
2011,04,05,12,50,8.40
2011,04,05,12,51,8.40
2011,04,05,12,52,8.40
2011,04,05,12,53,8.50
2011,04,05,12,54,8.50
2011,04,05,12,55,8.60
2011,04,05,12,56,8.70
2011,04,05,12,57,8.70
2011,04,05,12,58,8.80
2011,04,05,12,59,8.80
2011,04,05,13,00,8.80
2011,04,05,13,01,8.70
2011,04,05,13,02,8.70
2011,04,05,13,03,8.70
2011,04,05,13,04,8.70
2011,04,05,13,05,8.70
2011,04,05,13,06,8.70
2011,04,05,13,07,8.80
2011,04,05,13,08,8.90
2011,04,05,13,09,8.80
2011,04,05,13,10,8.80
2011,04,05,13,11,8.80
2011,04,05,13,12,8.80
2011,04,05,13,13,8.90
2011,04,05,13,14,8.90
2011,04,05,13,15,8.80
2011,04,05,13,16,8.70
2011,04,05,13,17,8.60
2011,04,05,13,18,8.60
2011,04,05,13,19,8.60
2011,04,05,13,20,8.50
2011,04,05,13,21,8.50
2011,04,05,13,22,8.40
2011,04,05,13,23,8.40
2011,04,05,13,24,8.40
2011,04,05,13,25,8.40
2011,04,05,13,26,8.40
2011,04,05,13,27,8.30
2011,04,05,13,28,8.20
2011,04,05,13,29,8.10
2011,04,05,13,30,8.00
2011,04,05,13,31,7.90
2011,04,05,13,32,7.90
2011,04,05,13,33,7.80
2011,04,05,13,34,7.80
2011,04,05,13,35,7.80
2011,04,05,13,36,7.80
2011,04,05,13,37,7.90
2011,04,05,13,38,7.90
2011,04,05,13,39,7.90
2011,04,05,13,40,8.00
2011,04,05,13,41,8.00
2011,04,05,13,42,8.10
2011,04,05,13,43,8.10
2011,04,05,13,44,8.10
2011,04,05,13,45,8.00
2011,04,05,13,46,8.00
2011,04,05,13,47,8.00
2011,04,05,13,48,8.00
2011,04,05,13,49,7.90
2011,04,05,13,50,8.00
2011,04,05,13,51,8.00
2011,04,05,13,52,8.00
2011,04,05,13,53,8.00
2011,04,05,13,54,7.90
2011,04,05,13,55,7.90
2011,04,05,13,56,7.90
2011,04,05,13,57,7.90
2011,04,05,13,58,7.90
2011,04,05,13,59,8.00
2011,04,05,14,00,8.00
2011,04,05,14,01,8.00
2011,04,05,14,02,8.00
2011,04,05,14,03,8.00
2011,04,05,14,04,8.10
2011,04,05,14,05,8.10
2011,04,05,14,06,8.10
2011,04,05,14,07,8.20
2011,04,05,14,08,8.20
2011,04,05,14,09,8.20
2011,04,05,14,10,8.30
2011,04,05,14,11,8.30
2011,04,05,14,12,8.40
2011,04,05,14,13,8.40
2011,04,05,14,14,8.40
2011,04,05,14,15,8.40
2011,04,05,14,16,8.40
2011,04,05,14,17,8.50
2011,04,05,14,18,8.60
2011,04,05,14,19,8.80
2011,04,05,14,20,8.80
2011,04,05,14,21,8.70
2011,04,05,14,22,8.70
2011,04,05,14,23,8.60
2011,04,05,14,24,8.60
2011,04,05,14,25,8.50
2011,04,05,14,26,8.50
2011,04,05,14,27,8.60
2011,04,05,14,28,8.60
2011,04,05,14,29,8.70
2011,04,05,14,30,8.80
2011,04,05,14,31,8.80
2011,04,05,14,32,8.70
2011,04,05,14,33,8.60
2011,04,05,14,34,8.60
2011,04,05,14,35,8.50
2011,04,05,14,36,8.50
2011,04,05,14,37,8.40
2011,04,05,14,38,8.40
2011,04,05,14,39,8.40
2011,04,05,14,40,8.40
2011,04,05,14,41,8.50
2011,04,05,14,42,8.60
2011,04,05,14,43,8.60
2011,04,05,14,44,8.60
2011,04,05,14,45,8.60
2011,04,05,14,46,8.70
2011,04,05,14,47,8.70
2011,04,05,14,48,8.60
2011,04,05,14,49,8.50
2011,04,05,14,50,8.50
2011,04,05,14,51,8.40
2011,04,05,14,52,8.40
2011,04,05,14,53,8.40
2011,04,05,14,54,8.40
2011,04,05,14,55,8.50
2011,04,05,14,56,8.50
2011,04,05,14,57,8.60
2011,04,05,14,58,8.60
2011,04,05,14,59,8.70
2011,04,05,15,00,8.70
2011,04,05,15,01,8.70
2011,04,05,15,02,8.70
2011,04,05,15,03,8.70
2011,04,05,15,04,8.70
2011,04,05,15,05,8.80
2011,04,05,15,06,8.80
2011,04,05,15,07,8.80
2011,04,05,15,08,8.70
2011,04,05,15,09,8.70
2011,04,05,15,10,8.70
2011,04,05,15,11,8.70
2011,04,05,15,12,8.60
2011,04,05,15,13,8.60
2011,04,05,15,14,8.60
2011,04,05,15,15,8.60
2011,04,05,15,16,8.70
2011,04,05,15,17,8.80
2011,04,05,15,18,8.90
2011,04,05,15,19,9.00
2011,04,05,15,20,9.10
2011,04,05,15,21,9.10
2011,04,05,15,22,9.20
2011,04,05,15,23,9.20
2011,04,05,15,24,9.20
2011,04,05,15,25,9.30
2011,04,05,15,26,9.30
2011,04,05,15,27,9.30
2011,04,05,15,28,9.20
2011,04,05,15,29,9.10
2011,04,05,15,30,9.00
2011,04,05,15,31,9.00
2011,04,05,15,32,8.90
2011,04,05,15,33,8.90
2011,04,05,15,34,8.90
2011,04,05,15,35,8.90
2011,04,05,15,36,8.90
2011,04,05,15,37,9.00
2011,04,05,15,38,9.10
2011,04,05,15,39,9.10
2011,04,05,15,40,9.10
2011,04,05,15,41,9.20
2011,04,05,15,42,9.30
2011,04,05,15,43,9.30
2011,04,05,15,44,9.20
2011,04,05,15,45,9.20
2011,04,05,15,46,9.30
2011,04,05,15,47,9.30
2011,04,05,15,48,9.30
2011,04,05,15,49,9.30
2011,04,05,15,50,9.30
2011,04,05,15,51,9.20
2011,04,05,15,52,9.20
2011,04,05,15,53,9.00
2011,04,05,15,54,8.90
2011,04,05,15,55,8.90
2011,04,05,15,56,9.00
2011,04,05,15,57,9.00
2011,04,05,15,58,9.10
2011,04,05,15,59,9.10
2011,04,05,16,00,9.10
2011,04,05,16,01,9.00
2011,04,05,16,02,8.90
2011,04,05,16,03,8.90
2011,04,05,16,04,8.90
2011,04,05,16,05,8.80
2011,04,05,16,06,8.80
2011,04,05,16,07,8.80
2011,04,05,16,08,8.70
2011,04,05,16,09,8.60
2011,04,05,16,10,8.60
2011,04,05,16,11,8.60
2011,04,05,16,12,8.60
2011,04,05,16,13,8.50
2011,04,05,16,14,8.50
2011,04,05,16,15,8.40
2011,04,05,16,16,8.40
2011,04,05,16,17,8.40
2011,04,05,16,18,8.40
2011,04,05,16,19,8.40
2011,04,05,16,20,8.50
2011,04,05,16,21,8.60
2011,04,05,16,22,8.60
2011,04,05,16,23,8.60
2011,04,05,16,24,8.60
2011,04,05,16,25,8.70
2011,04,05,16,26,8.70
2011,04,05,16,27,8.70
2011,04,05,16,28,8.70
2011,04,05,16,29,8.80
2011,04,05,16,30,8.80
2011,04,05,16,31,8.80
2011,04,05,16,32,8.80
2011,04,05,16,33,8.80
2011,04,05,16,34,8.90
2011,04,05,16,35,8.90
2011,04,05,16,36,8.90
2011,04,05,16,37,9.00
2011,04,05,16,38,9.00
2011,04,05,16,39,9.10
2011,04,05,16,40,9.10
2011,04,05,16,41,9.20
2011,04,05,16,42,9.30
2011,04,05,16,43,9.30
2011,04,05,16,44,9.30
2011,04,05,16,45,9.30
2011,04,05,16,46,9.20
2011,04,05,16,47,9.20
2011,04,05,16,48,9.10
2011,04,05,16,49,9.00
2011,04,05,16,50,8.90
2011,04,05,16,51,8.90
2011,04,05,16,52,8.90
2011,04,05,16,53,8.90
2011,04,05,16,54,9.00
2011,04,05,16,55,9.10
2011,04,05,16,56,9.20
2011,04,05,16,57,9.30
2011,04,05,16,58,9.30
2011,04,05,16,59,9.30
2011,04,05,17,00,9.40
2011,04,05,17,01,9.40
2011,04,05,17,02,9.50
2011,04,05,17,03,9.50
2011,04,05,17,04,9.50
2011,04,05,17,05,9.40
2011,04,05,17,06,9.20
2011,04,05,17,07,9.10
2011,04,05,17,08,9.00
2011,04,05,17,09,8.90
2011,04,05,17,10,9.00
2011,04,05,17,11,9.00
2011,04,05,17,12,9.10
2011,04,05,17,13,9.10
2011,04,05,17,14,9.20
2011,04,05,17,15,9.40
2011,04,05,17,16,9.40
2011,04,05,17,17,9.50
2011,04,05,17,18,9.50
2011,04,05,17,19,9.40
2011,04,05,17,20,9.30
2011,04,05,17,21,9.30
2011,04,05,17,22,9.30
2011,04,05,17,23,9.30
2011,04,05,17,24,9.30
2011,04,05,17,25,9.30
2011,04,05,17,26,9.40
2011,04,05,17,27,9.40
2011,04,05,17,28,9.40
2011,04,05,17,29,9.50
2011,04,05,17,30,9.50
2011,04,05,17,31,9.50
2011,04,05,17,32,9.40
2011,04,05,17,33,9.40
2011,04,05,17,34,9.30
2011,04,05,17,35,9.20
2011,04,05,17,36,9.00
2011,04,05,17,37,9.00
2011,04,05,17,38,9.00
2011,04,05,17,39,9.10
2011,04,05,17,40,9.10
2011,04,05,17,41,9.20
2011,04,05,17,42,9.20
2011,04,05,17,43,9.40
2011,04,05,17,44,9.50
2011,04,05,17,45,9.60
2011,04,05,17,46,9.60
2011,04,05,17,47,9.60
2011,04,05,17,48,9.60
2011,04,05,17,49,9.60
2011,04,05,17,50,9.60
2011,04,05,17,51,9.60
2011,04,05,17,52,9.60
2011,04,05,17,53,9.50
2011,04,05,17,54,9.40
2011,04,05,17,55,9.30
2011,04,05,17,56,9.20
2011,04,05,17,57,9.20
2011,04,05,17,58,9.20
2011,04,05,17,59,9.20
2011,04,05,18,00,9.20
2011,04,05,18,01,9.20
2011,04,05,18,02,9.20
2011,04,05,18,03,9.30
2011,04,05,18,04,9.30
2011,04,05,18,05,9.40
2011,04,05,18,06,9.40